| time (UTC) | temp F | wind direction | speed knots | gust knots | rain 1hr in | rain 24hr in | rain mn in | humidity % | barometer mb |
| 20260507015603 | 71 | 266 | 4.3 | 7.8 | 0.00 | 0.00 | 0.00 | 54 | 1016.3 |
| 20260507015104 | 71 | 273 | 4.3 | 7.8 | 0.00 | 0.00 | 0.00 | 54 | 1016.3 |
| 20260507014104 | 71 | 307 | 5.2 | 7.8 | 0.00 | 0.00 | 0.00 | 53 | 1016.2 |
| 20260507013604 | 71 | 327 | 4.3 | 8.7 | 0.00 | 0.00 | 0.00 | 53 | 1016.2 |
| 20260507013104 | 72 | 319 | 4.3 | 8.7 | 0.00 | 0.00 | 0.00 | 52 | 1016.2 |
| 20260507012604 | 72 | 310 | 4.3 | 7.8 | 0.00 | 0.00 | 0.00 | 52 | 1016.1 |
| 20260507012103 | 72 | 304 | 4.3 | 7.8 | 0.00 | 0.00 | 0.00 | 52 | 1016.1 |
| 20260507010604 | 73 | 343 | 4.3 | 8.7 | 0.00 | 0.00 | 0.00 | 51 | 1016.1 |
| 20260507010104 | 74 | 292 | 4.3 | 10.4 | 0.00 | 0.00 | 0.00 | 50 | 1016.1 |
| 20260507005603 | 74 | 299 | 4.3 | 10.4 | 0.00 | 0.00 | 0.00 | 50 | 1016.1 |
| 20260507005103 | 74 | 318 | 4.3 | 10.4 | 0.00 | 0.00 | 0.00 | 50 | 1016.1 |
| 20260507004604 | 75 | 314 | 5.2 | 10.4 | 0.00 | 0.00 | 0.00 | 49 | 1016.1 |
| 20260507004103 | 75 | 337 | 5.2 | 7.8 | 0.00 | 0.00 | 0.00 | 49 | 1016.1 |
| 20260507003604 | 74 | 309 | 5.2 | 11.3 | 0.00 | 0.00 | 0.00 | 50 | 1016.1 |
| 20260507003104 | 74 | 320 | 5.2 | 11.3 | 0.00 | 0.00 | 0.00 | 50 | 1016.1 |
| 20260507002604 | 75 | 305 | 4.3 | 10.4 | 0.00 | 0.00 | 0.00 | 48 | 1015.9 |
| 20260507002103 | 75 | 279 | 4.3 | 8.7 | 0.00 | 0.00 | 0.00 | 49 | 1015.9 |
| 20260507001604 | 75 | 281 | 5.2 | 8.7 | 0.00 | 0.00 | 0.00 | 48 | 1015.9 |
| 20260507000604 | 75 | 286 | 4.3 | 11.3 | 0.00 | 0.00 | 0.00 | 48 | 1015.9 |
| 20260507000104 | 76 | 300 | 4.3 | 11.3 | 0.00 | 0.00 | 0.00 | 47 | 1015.9 |
| 20260506235604 | 76 | 359 | 4.3 | 7.0 | 0.00 | 0.00 | 0.00 | 47 | 1015.9 |
| 20260506235103 | 76 | 17 | 5.2 | 8.7 | 0.00 | 0.00 | 0.00 | 48 | 1015.9 |
| 20260506234603 | 75 | 304 | 5.2 | 11.3 | 0.00 | 0.00 | 0.00 | 48 | 1015.9 |
| 20260506234104 | 76 | 284 | 5.2 | 11.3 | 0.00 | 0.00 | 0.00 | 47 | 1015.9 |
| 20260506233604 | 76 | 286 | 5.2 | 8.7 | 0.00 | 0.00 | 0.00 | 47 | 1015.9 |
| 20260506233104 | 76 | 294 | 5.2 | 8.7 | 0.00 | 0.00 | 0.00 | 47 | 1015.9 |
| 20260506232604 | 76 | 314 | 4.3 | 8.7 | 0.00 | 0.00 | 0.00 | 46 | 1016.0 |
| 20260506232103 | 77 | 315 | 4.3 | 10.4 | 0.00 | 0.00 | 0.00 | 46 | 1016.0 |
| 20260506231603 | 76 | 334 | 5.2 | 10.4 | 0.00 | 0.00 | 0.00 | 47 | 1016.0 |
| 20260506231104 | 76 | 301 | 5.2 | 8.7 | 0.00 | 0.00 | 0.00 | 47 | 1016.1 |
| 20260506230603 | 76 | 2 | 5.2 | 8.7 | 0.00 | 0.00 | 0.00 | 46 | 1016.1 |
| 20260506230104 | 76 | 289 | 5.2 | 8.7 | 0.00 | 0.00 | 0.00 | 47 | 1016.1 |
| 20260506225604 | 76 | 344 | 5.2 | 8.7 | 0.00 | 0.00 | 0.00 | 48 | 1016.1 |
| 20260506225104 | 76 | 326 | 5.2 | 8.7 | 0.00 | 0.00 | 0.00 | 47 | 1016.1 |
| 20260506224604 | 76 | 307 | 5.2 | 13.9 | 0.00 | 0.00 | 0.00 | 47 | 1016.1 |
| 20260506224103 | 77 | 290 | 5.2 | 13.9 | 0.00 | 0.00 | 0.00 | 47 | 1016.3 |
| 20260506223603 | 77 | 311 | 5.2 | 13.9 | 0.00 | 0.00 | 0.00 | 46 | 1016.3 |
| 20260506222604 | 78 | 322 | 4.3 | 11.3 | 0.00 | 0.00 | 0.00 | 46 | 1016.4 |
| 20260506222104 | 78 | 306 | 4.3 | 11.3 | 0.00 | 0.00 | 0.00 | 46 | 1016.4 |
| 20260506221604 | 78 | 258 | 4.3 | 10.4 | 0.00 | 0.00 | 0.00 | 46 | 1016.4 |
| 20260506221104 | 77 | 302 | 4.3 | 10.4 | 0.00 | 0.00 | 0.00 | 47 | 1016.6 |
| 20260506220604 | 77 | 306 | 4.3 | 10.4 | 0.00 | 0.00 | 0.00 | 46 | 1016.6 |
| 20260506220104 | 78 | 333 | 4.3 | 8.7 | 0.00 | 0.00 | 0.00 | 45 | 1016.6 |
| 20260506215604 | 78 | 303 | 5.2 | 8.7 | 0.00 | 0.00 | 0.00 | 44 | 1016.8 |
| 20260506215105 | 78 | 279 | 6.1 | 8.7 | 0.00 | 0.00 | 0.00 | 45 | 1016.8 |
| 20260506214604 | 78 | 299 | 4.3 | 15.6 | 0.00 | 0.00 | 0.00 | 45 | 1016.8 |
| 20260506214105 | 78 | 277 | 4.3 | 15.6 | 0.00 | 0.00 | 0.00 | 44 | 1016.9 |
| 20260506213603 | 79 | 350 | 4.3 | 8.7 | 0.00 | 0.00 | 0.00 | 43 | 1016.9 |
| 20260506213104 | 80 | 354 | 4.3 | 7.8 | 0.00 | 0.00 | 0.00 | 41 | 1016.9 |
| 20260506212604 | 80 | 285 | 2.6 | 7.8 | 0.00 | 0.00 | 0.00 | 42 | 1017.0 |
| 20260506212104 | 79 | 51 | 2.6 | 7.8 | 0.00 | 0.00 | 0.00 | 41 | 1017.0 |
| 20260506211603 | 79 | 284 | 2.6 | 7.8 | 0.00 | 0.00 | 0.00 | 42 | 1017.0 |
| 20260506211104 | 80 | 303 | 1.7 | 7.8 | 0.00 | 0.00 | 0.00 | 40 | 1017.1 |
| 20260506210603 | 80 | 77 | 2.6 | 5.2 | 0.00 | 0.00 | 0.00 | 40 | 1017.1 |
| 20260506210104 | 79 | 78 | 2.6 | 5.2 | 0.00 | 0.00 | 0.00 | 41 | 1017.1 |
| 20260506205603 | 78 | 145 | 2.6 | 6.1 | 0.00 | 0.00 | 0.00 | 41 | 1017.2 |
| 20260506204604 | 78 | 344 | 3.5 | 7.8 | 0.00 | 0.00 | 0.00 | 42 | 1017.2 |
| 20260506204104 | 78 | 0 | 4.3 | 7.8 | 0.00 | 0.00 | 0.00 | 41 | 1017.4 |
| 20260506203603 | 79 | 304 | 2.6 | 7.0 | 0.00 | 0.00 | 0.00 | 41 | 1017.4 |
| 20260506202604 | 80 | 336 | 1.7 | 5.2 | 0.00 | 0.00 | 0.00 | 39 | 1017.6 |
| 20260506202104 | 79 | 102 | 1.7 | 5.2 | 0.00 | 0.00 | 0.00 | 40 | 1017.6 |
| 20260506201603 | 78 | 174 | 2.6 | 5.2 | 0.00 | 0.00 | 0.00 | 40 | 1017.6 |
| 20260506201103 | 78 | 106 | 2.6 | 5.2 | 0.00 | 0.00 | 0.00 | 41 | 1017.7 |
| 20260506200103 | 77 | 302 | 1.7 | 7.8 | 0.00 | 0.00 | 0.00 | 40 | 1017.7 |
| 20260506195603 | 77 | 183 | 2.6 | 5.2 | 0.00 | 0.00 | 0.00 | 42 | 1017.9 |
| 20260506195104 | 77 | 169 | 2.6 | 7.0 | 0.00 | 0.00 | 0.00 | 41 | 1017.9 |
| 20260506194604 | 77 | 87 | 2.6 | 7.0 | 0.00 | 0.00 | 0.00 | 41 | 1017.9 |
| 20260506194104 | 77 | 206 | 1.7 | 6.1 | 0.00 | 0.00 | 0.00 | 42 | 1018.0 |
| 20260506193604 | 76 | 132 | 2.6 | 7.0 | 0.00 | 0.00 | 0.00 | 43 | 1018.0 |
| 20260506193104 | 75 | 298 | 2.6 | 7.8 | 0.00 | 0.00 | 0.00 | 42 | 1018.0 |
| 20260506192604 | 75 | 191 | 2.6 | 7.8 | 0.00 | 0.00 | 0.00 | 43 | 1018.2 |
| 20260506191104 | 75 | 139 | 1.7 | 5.2 | 0.00 | 0.00 | 0.00 | 44 | 1018.3 |
| 20260506190604 | 74 | 62 | 2.6 | 5.2 | 0.00 | 0.00 | 0.00 | 44 | 1018.3 |
| 20260506190104 | 73 | 160 | 2.6 | 5.2 | 0.00 | 0.00 | 0.00 | 46 | 1018.3 |
| 20260506185604 | 73 | 190 | 2.6 | 6.1 | 0.00 | 0.00 | 0.00 | 45 | 1018.5 |
| 20260506185104 | 73 | 213 | 2.6 | 6.1 | 0.00 | 0.00 | 0.00 | 46 | 1018.5 |
| 20260506184604 | 72 | 248 | 2.6 | 7.8 | 0.00 | 0.00 | 0.00 | 46 | 1018.5 |
| 20260506184103 | 71 | 114 | 2.6 | 7.8 | 0.00 | 0.00 | 0.00 | 47 | 1018.6 |
| 20260506183103 | 72 | 166 | 2.6 | 6.1 | 0.00 | 0.00 | 0.00 | 46 | 1018.6 |
| 20260506182604 | 71 | 198 | 2.6 | 6.1 | 0.00 | 0.00 | 0.00 | 47 | 1018.8 |
| 20260506181104 | 70 | 164 | 1.7 | 5.2 | 0.00 | 0.00 | 0.00 | 49 | 1018.9 |
| 20260506180603 | 70 | 178 | 3.5 | 5.2 | 0.00 | 0.00 | 0.00 | 49 | 1018.9 |
| 20260506180103 | 69 | 216 | 4.3 | 5.2 | 0.00 | 0.00 | 0.00 | 51 | 1018.9 |
| 20260506175603 | 69 | 222 | 2.6 | 7.8 | 0.00 | 0.00 | 0.00 | 51 | 1018.9 |
| 20260506175103 | 69 | 86 | 2.6 | 7.8 | 0.00 | 0.00 | 0.00 | 51 | 1018.9 |
| 20260506174103 | 69 | 74 | 1.7 | 6.1 | 0.00 | 0.00 | 0.00 | 51 | 1019.0 |
| 20260506173104 | 67 | 96 | 1.7 | 6.1 | 0.00 | 0.00 | 0.00 | 54 | 1019.0 |
| 20260506172604 | 67 | 46 | 1.7 | 5.2 | 0.00 | 0.00 | 0.00 | 54 | 1019.0 |
| 20260506172104 | 66 | 75 | 1.7 | 5.2 | 0.00 | 0.00 | 0.00 | 55 | 1019.0 |
| 20260506171104 | 66 | 278 | 1.7 | 6.1 | 0.00 | 0.00 | 0.00 | 54 | 1019.0 |
| 20260506170604 | 66 | 185 | 1.7 | 6.1 | 0.00 | 0.00 | 0.00 | 53 | 1019.0 |
| 20260506170104 | 66 | 200 | 1.7 | 4.3 | 0.00 | 0.00 | 0.00 | 55 | 1019.0 |
| 20260506165604 | 66 | 191 | 1.7 | 4.3 | 0.00 | 0.00 | 0.00 | 56 | 1019.1 |
| 20260506165104 | 66 | 134 | 1.7 | 4.3 | 0.00 | 0.00 | 0.00 | 57 | 1019.1 |
| 20260506164604 | 65 | 81 | 1.7 | 4.3 | 0.00 | 0.00 | 0.00 | 58 | 1019.1 |
| 20260506164104 | 65 | 169 | 1.7 | 4.3 | 0.00 | 0.00 | 0.00 | 59 | 1019.1 |
| 20260506163604 | 64 | 75 | 1.7 | 5.2 | 0.00 | 0.00 | 0.00 | 61 | 1019.1 |
| 20260506163104 | 64 | 81 | 1.7 | 5.2 | 0.00 | 0.00 | 0.00 | 59 | 1019.1 |
| 20260506162103 | 63 | 74 | 1.7 | 5.2 | 0.00 | 0.00 | 0.00 | 63 | 1019.1 |
| 20260506161604 | 63 | 256 | 1.7 | 4.3 | 0.00 | 0.00 | 0.00 | 63 | 1019.1 |
| 20260506161103 | 63 | 300 | 1.7 | 4.3 | 0.00 | 0.00 | 0.00 | 64 | 1019.2 |
| 20260506160603 | 63 | 82 | 1.7 | 4.3 | 0.00 | 0.00 | 0.00 | 65 | 1019.2 |
| 20260506160103 | 62 | 175 | 1.7 | 4.3 | 0.00 | 0.00 | 0.00 | 66 | 1019.2 |
| 20260506155603 | 62 | 200 | 1.7 | 2.6 | 0.00 | 0.00 | 0.00 | 67 | 1019.3 |
| 20260506155103 | 62 | 0 | 1.7 | 2.6 | 0.00 | 0.00 | 0.00 | 66 | 1019.3 |
| 20260506154104 | 61 | 99 | 1.7 | 4.3 | 0.00 | 0.00 | 0.00 | 68 | 1019.3 |
| 20260506153604 | 61 | 80 | 1.7 | 4.3 | 0.00 | 0.00 | 0.00 | 69 | 1019.3 |
| 20260506153103 | 60 | 93 | 1.7 | 4.3 | 0.00 | 0.00 | 0.00 | 70 | 1019.3 |
| 20260506152603 | 60 | 76 | 1.7 | 2.6 | 0.00 | 0.00 | 0.00 | 71 | 1019.3 |
| 20260506151104 | 58 | 101 | 1.7 | 4.3 | 0.00 | 0.00 | 0.00 | 74 | 1019.3 |
| 20260506150604 | 58 | 296 | 1.7 | 4.3 | 0.00 | 0.00 | 0.00 | 74 | 1019.3 |
| 20260506150104 | 57 | 296 | 1.7 | 4.3 | 0.00 | 0.00 | 0.00 | 77 | 1019.3 |
| 20260506145104 | 56 | 295 | 0.9 | 2.6 | 0.00 | 0.00 | 0.00 | 78 | 1019.4 |
| 20260506144604 | 56 | 296 | 1.7 | 2.6 | 0.00 | 0.00 | 0.00 | 80 | 1019.4 |
| 20260506144103 | 55 | 296 | 1.7 | 4.3 | 0.00 | 0.00 | 0.00 | 80 | 1019.3 |
| 20260506143603 | 55 | 296 | 1.7 | 4.3 | 0.00 | 0.00 | 0.00 | 81 | 1019.3 |
| 20260506143103 | 55 | 296 | 1.7 | 2.6 | 0.00 | 0.00 | 0.00 | 81 | 1019.3 |
| 20260506142604 | 54 | 296 | 1.7 | 2.6 | 0.00 | 0.00 | 0.00 | 82 | 1019.2 |
| 20260506142103 | 54 | 296 | 0.9 | 2.6 | 0.00 | 0.00 | 0.00 | 83 | 1019.2 |
| 20260506141603 | 53 | 296 | 0.9 | 2.6 | 0.00 | 0.00 | 0.00 | 86 | 1019.2 |
| 20260506141104 | 53 | 296 | 0.0 | 1.7 | 0.00 | 0.00 | 0.00 | 88 | 1019.1 |
| 20260506140604 | 52 | 296 | 0.0 | 1.7 | 0.00 | 0.00 | 0.00 | 89 | 1019.1 |
| 20260506140104 | 51 | 296 | 0.0 | 1.7 | 0.00 | 0.00 | 0.00 | 90 | 1019.1 |
| 20260506135603 | 50 | 296 | 0.0 | 1.7 | 0.00 | 0.00 | 0.00 | 91 | 1019.0 |
| 20260506134604 | 49 | 296 | 0.0 | 1.7 | 0.00 | 0.00 | 0.00 | 93 | 1019.0 |
| 20260506134103 | 48 | 296 | 0.0 | 1.7 | 0.00 | 0.00 | 0.00 | 93 | 1018.9 |
| 20260506133603 | 48 | 296 | 0.0 | 0.0 | 0.00 | 0.00 | 0.00 | 93 | 1018.9 |
| 20260506133104 | 47 | 296 | 0.0 | 0.0 | 0.00 | 0.00 | 0.00 | 94 | 1018.9 |
| 20260506132604 | 47 | 296 | 0.0 | 0.0 | 0.00 | 0.00 | 0.00 | 93 | 1018.9 |
| 20260506131603 | 47 | 296 | 0.0 | 1.7 | 0.00 | 0.00 | 0.00 | 93 | 1018.9 |
| 20260506131104 | 47 | 296 | 0.0 | 1.7 | 0.00 | 0.00 | 0.00 | 92 | 1018.6 |
| 20260506130603 | 47 | 296 | 0.0 | 1.7 | 0.00 | 0.00 | 0.00 | 92 | 1018.6 |
| 20260506125103 | 47 | 296 | 0.0 | 0.0 | 0.00 | 0.00 | 0.00 | 92 | 1018.5 |
| 20260506124604 | 47 | 296 | 0.0 | 0.0 | 0.00 | 0.00 | 0.00 | 91 | 1018.5 |
| 20260506124104 | 47 | 296 | 0.0 | 0.0 | 0.00 | 0.00 | 0.00 | 91 | 1018.4 |
| 20260506123104 | 47 | 296 | 0.0 | 0.9 | 0.00 | 0.00 | 0.00 | 91 | 1018.4 |
| 20260506122603 | 48 | 296 | 0.0 | 1.7 | 0.00 | 0.00 | 0.00 | 91 | 1018.3 |
| 20260506122104 | 48 | 296 | 0.0 | 1.7 | 0.00 | 0.00 | 0.00 | 91 | 1018.3 |
| 20260506120604 | 48 | 296 | 0.0 | 0.0 | 0.00 | 0.00 | 0.00 | 91 | 1018.3 |
| 20260506120103 | 48 | 296 | 0.0 | 0.0 | 0.00 | 0.00 | 0.00 | 91 | 1018.3 |
| 20260506115604 | 48 | 296 | 0.0 | 0.0 | 0.00 | 0.00 | 0.00 | 91 | 1018.3 |
| 20260506115103 | 48 | 296 | 0.0 | 0.0 | 0.00 | 0.00 | 0.00 | 90 | 1018.3 |
| 20260506114604 | 48 | 296 | 0.0 | 0.0 | 0.00 | 0.00 | 0.00 | 90 | 1018.3 |
| 20260506113604 | 48 | 296 | 0.9 | 1.7 | 0.00 | 0.00 | 0.00 | 90 | 1018.2 |
| 20260506113103 | 48 | 296 | 0.9 | 1.7 | 0.00 | 0.00 | 0.00 | 90 | 1018.2 |
| 20260506112104 | 49 | 296 | 0.0 | 1.7 | 0.00 | 0.00 | 0.00 | 90 | 1018.1 |
| 20260506111603 | 49 | 296 | 0.0 | 0.0 | 0.00 | 0.00 | 0.00 | 89 | 1018.1 |
| 20260506111103 | 49 | 296 | 0.0 | 0.0 | 0.00 | 0.00 | 0.00 | 89 | 1018.2 |
| 20260506105603 | 49 | 296 | 0.9 | 1.7 | 0.00 | 0.00 | 0.00 | 89 | 1018.3 |
| 20260506105104 | 49 | 296 | 1.7 | 1.7 | 0.00 | 0.00 | 0.00 | 89 | 1018.3 |
| 20260506104604 | 49 | 296 | 0.9 | 1.7 | 0.00 | 0.00 | 0.00 | 89 | 1018.3 |
| 20260506104104 | 49 | 296 | 0.0 | 1.7 | 0.00 | 0.00 | 0.00 | 89 | 1018.2 |
| 20260506103104 | 49 | 296 | 0.0 | 1.7 | 0.00 | 0.00 | 0.00 | 89 | 1018.2 |
| 20260506102604 | 50 | 296 | 0.0 | 1.7 | 0.00 | 0.00 | 0.00 | 88 | 1018.2 |
| 20260506102104 | 50 | 296 | 0.0 | 1.7 | 0.00 | 0.00 | 0.00 | 88 | 1018.2 |
| 20260506101604 | 50 | 296 | 0.9 | 1.7 | 0.00 | 0.00 | 0.00 | 87 | 1018.2 |
| 20260506101104 | 50 | 296 | 0.9 | 1.7 | 0.00 | 0.00 | 0.00 | 88 | 1018.2 |
| 20260506100103 | 50 | 296 | 0.9 | 1.7 | 0.00 | 0.00 | 0.00 | 88 | 1018.2 |
| 20260506095604 | 50 | 296 | 1.7 | 1.7 | 0.00 | 0.00 | 0.00 | 88 | 1018.3 |
| 20260506095104 | 50 | 296 | 1.7 | 1.7 | 0.00 | 0.00 | 0.00 | 88 | 1018.3 |
| 20260506094603 | 50 | 296 | 1.7 | 1.7 | 0.00 | 0.00 | 0.00 | 88 | 1018.3 |
| 20260506094103 | 50 | 296 | 0.9 | 1.7 | 0.00 | 0.00 | 0.00 | 87 | 1018.3 |
| 20260506093603 | 50 | 296 | 1.7 | 1.7 | 0.00 | 0.00 | 0.00 | 86 | 1018.3 |
| 20260506093104 | 50 | 296 | 1.7 | 1.7 | 0.00 | 0.00 | 0.00 | 86 | 1018.3 |
| 20260506092604 | 50 | 296 | 1.7 | 1.7 | 0.00 | 0.00 | 0.00 | 86 | 1018.5 |
| 20260506091604 | 50 | 296 | 0.9 | 1.7 | 0.00 | 0.00 | 0.00 | 87 | 1018.5 |
| 20260506091103 | 50 | 296 | 0.0 | 1.7 | 0.00 | 0.00 | 0.00 | 86 | 1018.4 |
| 20260506090604 | 51 | 296 | 0.9 | 1.7 | 0.00 | 0.00 | 0.00 | 86 | 1018.4 |
| 20260506090103 | 51 | 296 | 0.9 | 1.7 | 0.00 | 0.00 | 0.00 | 86 | 1018.4 |
| 20260506085603 | 51 | 296 | 0.9 | 1.7 | 0.00 | 0.00 | 0.00 | 86 | 1018.5 |
| 20260506085104 | 51 | 296 | 0.0 | 1.7 | 0.00 | 0.00 | 0.00 | 86 | 1018.5 |
| 20260506084604 | 51 | 296 | 0.0 | 1.7 | 0.00 | 0.00 | 0.00 | 85 | 1018.5 |
| 20260506083604 | 51 | 296 | 0.9 | 1.7 | 0.00 | 0.00 | 0.00 | 85 | 1018.7 |
| 20260506083104 | 51 | 296 | 0.9 | 1.7 | 0.00 | 0.00 | 0.00 | 85 | 1018.7 |
| 20260506082604 | 51 | 296 | 0.9 | 1.7 | 0.00 | 0.00 | 0.00 | 85 | 1018.6 |
| 20260506082104 | 51 | 296 | 0.0 | 1.7 | 0.00 | 0.00 | 0.00 | 85 | 1018.6 |
| 20260506081604 | 51 | 296 | 0.0 | 1.7 | 0.00 | 0.00 | 0.00 | 85 | 1018.6 |
| 20260506081103 | 51 | 296 | 0.0 | 0.0 | 0.00 | 0.00 | 0.00 | 84 | 1018.6 |
| 20260506080603 | 51 | 296 | 0.0 | 0.0 | 0.00 | 0.00 | 0.00 | 84 | 1018.6 |
| 20260506073104 | 52 | 296 | 0.0 | 1.7 | 0.00 | 0.00 | 0.00 | 82 | 1018.6 |
| 20260506072603 | 52 | 296 | 0.0 | 1.7 | 0.00 | 0.00 | 0.00 | 82 | 1018.5 |
| 20260506072104 | 52 | 296 | 0.0 | 2.6 | 0.00 | 0.00 | 0.00 | 82 | 1018.5 |
| 20260506071603 | 52 | 296 | 0.0 | 2.6 | 0.00 | 0.00 | 0.00 | 82 | 1018.5 |
| 20260506071105 | 52 | 296 | 0.0 | 0.9 | 0.00 | 0.00 | 0.00 | 82 | 1018.3 |
| 20260506070604 | 53 | 296 | 0.9 | 1.7 | 0.00 | 0.00 | 0.00 | 81 | 1018.3 |
| 20260506070104 | 53 | 296 | 0.9 | 1.7 | 0.00 | 0.00 | 0.00 | 81 | 1018.3 |
| 20260506061604 | 54 | 296 | 0.9 | 2.6 | 0.00 | 0.00 | 0.00 | 80 | 1017.9 |
| 20260506061103 | 54 | 296 | 0.0 | 2.6 | 0.00 | 0.00 | 0.00 | 80 | 1017.9 |
| 20260506060604 | 54 | 296 | 0.9 | 1.7 | 0.00 | 0.00 | 0.00 | 79 | 1017.9 |
| 20260506060104 | 54 | 296 | 0.9 | 1.7 | 0.00 | 0.00 | 0.00 | 79 | 1017.9 |
| 20260506051104 | 56 | 296 | 0.9 | 1.7 | 0.00 | 0.00 | 0.00 | 76 | 1017.3 |
| 20260506050604 | 56 | 296 | 1.7 | 1.7 | 0.00 | 0.00 | 0.00 | 75 | 1017.3 |
| 20260506050103 | 56 | 296 | 1.7 | 1.7 | 0.00 | 0.00 | 0.00 | 75 | 1017.3 |
| 20260506045104 | 57 | 296 | 0.9 | 2.6 | 0.00 | 0.00 | 0.00 | 74 | 1017.1 |
| 20260506044104 | 57 | 296 | 0.9 | 1.7 | 0.00 | 0.00 | 0.00 | 73 | 1016.9 |
| 20260506043604 | 57 | 296 | 1.7 | 1.7 | 0.00 | 0.00 | 0.00 | 72 | 1016.9 |
| 20260506043104 | 57 | 296 | 1.7 | 2.6 | 0.00 | 0.00 | 0.00 | 72 | 1016.9 |
| 20260506042604 | 58 | 296 | 1.7 | 2.6 | 0.00 | 0.00 | 0.00 | 71 | 1016.7 |
| 20260506042104 | 58 | 283 | 1.7 | 2.6 | 0.00 | 0.00 | 0.00 | 71 | 1016.7 |
| 20260506041603 | 58 | 268 | 1.7 | 4.3 | 0.00 | 0.00 | 0.00 | 70 | 1016.7 |
| 20260506041104 | 58 | 268 | 0.9 | 4.3 | 0.00 | 0.00 | 0.00 | 70 | 1016.6 |
| 20260506040604 | 59 | 227 | 1.7 | 1.7 | 0.00 | 0.00 | 0.00 | 69 | 1016.6 |
| 20260506040104 | 59 | 227 | 1.7 | 1.7 | 0.00 | 0.00 | 0.00 | 69 | 1016.6 |
| 20260506035603 | 59 | 227 | 1.7 | 4.3 | 0.00 | 0.00 | 0.00 | 68 | 1016.4 |
| 20260506035104 | 60 | 227 | 1.7 | 4.3 | 0.00 | 0.00 | 0.00 | 68 | 1016.4 |
| 20260506034604 | 60 | 261 | 1.7 | 4.3 | 0.00 | 0.00 | 0.00 | 67 | 1016.4 |
| 20260506034104 | 60 | 271 | 1.7 | 2.6 | 0.00 | 0.00 | 0.00 | 67 | 1016.3 |
| 20260506033604 | 60 | 271 | 1.7 | 2.6 | 0.00 | 0.00 | 0.00 | 67 | 1016.3 |
| 20260506033104 | 60 | 271 | 1.7 | 1.7 | 0.00 | 0.00 | 0.00 | 67 | 1016.3 |
| 20260506032604 | 60 | 271 | 1.7 | 4.3 | 0.00 | 0.00 | 0.00 | 67 | 1016.0 |
| 20260506032104 | 60 | 271 | 1.7 | 4.3 | 0.00 | 0.00 | 0.00 | 67 | 1016.0 |
| 20260506031603 | 60 | 271 | 1.7 | 4.3 | 0.00 | 0.00 | 0.00 | 67 | 1016.0 |
| 20260506031104 | 60 | 271 | 1.7 | 4.3 | 0.00 | 0.00 | 0.00 | 66 | 1015.7 |
| 20260506030603 | 60 | 271 | 1.7 | 2.6 | 0.00 | 0.00 | 0.00 | 66 | 1015.7 |
| 20260506030103 | 61 | 271 | 1.7 | 2.6 | 0.00 | 0.00 | 0.00 | 65 | 1015.7 |
| 20260506025603 | 61 | 271 | 1.7 | 4.3 | 0.00 | 0.00 | 0.00 | 65 | 1015.5 |
| 20260506025104 | 61 | 271 | 1.7 | 4.3 | 0.00 | 0.00 | 0.00 | 64 | 1015.5 |
| 20260506024104 | 61 | 213 | 1.7 | 4.3 | 0.00 | 0.00 | 0.00 | 63 | 1015.4 |
| 20260506023603 | 61 | 298 | 1.7 | 4.3 | 0.00 | 0.00 | 0.00 | 63 | 1015.4 |
| 20260506023104 | 62 | 300 | 1.7 | 4.3 | 0.00 | 0.00 | 0.00 | 63 | 1015.4 |
| 20260506022603 | 62 | 296 | 1.7 | 5.2 | 0.00 | 0.00 | 0.00 | 62 | 1015.2 |
| 20260506022104 | 62 | 296 | 1.7 | 5.2 | 0.00 | 0.00 | 0.00 | 61 | 1015.2 |
| 20260506021104 | 63 | 311 | 2.6 | 6.1 | 0.00 | 0.00 | 0.00 | 60 | 1015.1 |
| 20260506020603 | 63 | 306 | 2.6 | 6.1 | 0.00 | 0.00 | 0.00 | 59 | 1015.1 |
| 20260506020103 | 64 | 334 | 2.6 | 6.1 | 0.00 | 0.00 | 0.00 | 58 | 1015.1 |